TimeCDT,TemperatureF,Dew PointF,Humidity,Sea Level PressureIn,VisibilityMPH,Wind Direction,Wind SpeedMPH,Gust SpeedMPH,PrecipitationIn,Events,Conditions,WindDirDegrees,DateUTC
12:52 AM,28.9,17.1,61,30.14,10.0,WNW,8.1,-,N/A,,Clear,290,2013-03-12 05:52:00
1:52 AM,28.9,18.0,64,30.14,10.0,WNW,12.7,-,N/A,,Mostly Cloudy,300,2013-03-12 06:52:00
2:52 AM,27.0,19.0,72,30.17,10.0,WNW,9.2,-,N/A,,Clear,290,2013-03-12 07:52:00
3:52 AM,27.0,17.1,66,30.18,10.0,NW,9.2,-,N/A,,Clear,310,2013-03-12 08:52:00
4:52 AM,26.1,17.1,69,30.19,10.0,WNW,12.7,-,N/A,,Partly Cloudy,300,2013-03-12 09:52:00
5:52 AM,25.0,16.0,69,30.22,10.0,NW,15.0,23.0,N/A,,Clear,310,2013-03-12 10:52:00
6:52 AM,24.1,15.1,69,30.24,10.0,NW,12.7,20.7,N/A,,Clear,310,2013-03-12 11:52:00
7:52 AM,23.0,14.0,68,30.27,10.0,NW,17.3,24.2,N/A,,Clear,320,2013-03-12 12:52:00
8:52 AM,24.1,14.0,65,30.30,10.0,NW,19.6,28.8,N/A,,Clear,320,2013-03-12 13:52:00
9:52 AM,26.1,15.1,63,30.30,10.0,NW,19.6,32.2,N/A,,Clear,320,2013-03-12 14:52:00
10:52 AM,26.1,14.0,60,30.32,10.0,NW,21.9,34.5,N/A,,Clear,320,2013-03-12 15:52:00
11:52 AM,27.0,14.0,58,30.34,10.0,NW,16.1,26.5,N/A,,Clear,320,2013-03-12 16:52:00
12:52 PM,30.0,12.9,49,30.35,10.0,NNW,19.6,28.8,N/A,,Clear,330,2013-03-12 17:52:00
1:52 PM,33.1,10.0,38,30.34,10.0,NW,17.3,28.8,N/A,,Clear,320,2013-03-12 18:52:00
2:52 PM,34.0,8.1,34,30.32,10.0,NW,18.4,29.9,N/A,,Clear,310,2013-03-12 19:52:00
3:52 PM,36.0,10.0,34,30.32,10.0,NNW,13.8,24.2,N/A,,Clear,330,2013-03-12 20:52:00
4:52 PM,36.0,8.1,31,30.32,10.0,NW,17.3,25.3,N/A,,Clear,320,2013-03-12 21:52:00
5:52 PM,37.0,10.0,33,30.32,10.0,NNW,11.5,-,N/A,,Clear,330,2013-03-12 22:52:00
6:52 PM,35.1,10.0,35,30.31,10.0,North,10.4,-,N/A,,Clear,350,2013-03-12 23:52:00
7:52 PM,30.0,10.0,43,30.34,10.0,NNW,5.8,-,N/A,,Clear,340,2013-03-13 00:52:00
8:52 PM,27.0,12.0,53,30.36,10.0,NNE,4.6,-,N/A,,Clear,20,2013-03-13 01:52:00
9:52 PM,24.1,12.9,62,30.37,10.0,Calm,Calm,-,N/A,,Clear,0,2013-03-13 02:52:00
10:52 PM,21.9,12.9,68,30.38,10.0,SSW,9.2,-,N/A,,Clear,210,2013-03-13 03:52:00
11:52 PM,19.9,14.0,78,30.39,10.0,SW,4.6,-,N/A,,Clear,230,2013-03-13 04:52:00